Time,TemperatureF,DewpointF,PressureIn,WindDirection,WindDirectionDegrees,WindSpeedMPH,WindSpeedGustMPH,Humidity,HourlyPrecipIn,Conditions,Clouds,dailyrainin,SoftwareType,DateUTC
2013-06-10 00:02:00,68.0,67.0,30.08,North,355,0.0,-999.0,96,-99.99,,,-99.99,,2013-06-10 10:02:00,
2013-06-10 00:12:00,68.0,67.0,30.08,North,355,0.0,-999.0,96,-99.99,,,-99.99,,2013-06-10 10:12:00,
2013-06-10 00:22:00,67.0,66.0,30.07,North,355,0.0,-999.0,96,-99.99,,,-99.99,,2013-06-10 10:22:00,
2013-06-10 00:33:00,67.0,66.0,30.07,North,355,0.0,-999.0,96,-99.99,,,-99.99,,2013-06-10 10:33:00,
2013-06-10 00:42:00,67.0,66.0,30.07,North,355,0.0,-999.0,96,-99.99,,,-99.99,,2013-06-10 10:42:00,
2013-06-10 00:52:00,68.0,67.0,30.06,North,355,0.0,-999.0,97,-99.99,,,-99.99,,2013-06-10 10:52:00,
2013-06-10 01:02:00,67.0,66.0,30.06,North,355,0.0,-999.0,97,-99.99,,,-99.99,,2013-06-10 11:02:00,
2013-06-10 01:12:00,67.0,66.0,30.06,North,355,0.0,-999.0,97,-99.99,,,-99.99,,2013-06-10 11:12:00,
2013-06-10 01:22:00,67.0,66.0,30.05,North,355,0.0,-999.0,97,-99.99,,,-99.99,,2013-06-10 11:22:00,
2013-06-10 01:31:00,67.0,66.0,30.05,North,355,0.0,-999.0,97,-99.99,,,-99.99,,2013-06-10 11:31:00,
2013-06-10 01:42:00,67.0,66.0,30.05,North,355,0.0,-999.0,97,-99.99,,,-99.99,,2013-06-10 11:42:00,
2013-06-10 01:52:00,67.0,66.0,30.04,North,355,0.0,-999.0,97,-99.99,,,-99.99,,2013-06-10 11:52:00,
2013-06-10 02:02:00,67.0,66.0,30.04,North,355,0.0,-999.0,97,-99.99,,,-99.99,,2013-06-10 12:02:00,
2013-06-10 02:12:00,67.0,66.0,30.04,North,355,0.0,-999.0,97,-99.99,,,-99.99,,2013-06-10 12:12:00,
2013-06-10 02:22:00,67.0,66.0,30.04,North,355,0.0,-999.0,97,-99.99,,,-99.99,,2013-06-10 12:22:00,
2013-06-10 02:32:00,67.0,66.0,30.04,North,355,0.0,-999.0,97,-99.99,,,-99.99,,2013-06-10 12:32:00,
2013-06-10 02:42:00,67.0,66.0,30.04,North,355,0.0,-999.0,97,-99.99,,,-99.99,,2013-06-10 12:42:00,
2013-06-10 02:52:00,67.0,66.0,30.03,North,355,0.0,-999.0,97,-99.99,,,-99.99,,2013-06-10 12:52:00,
2013-06-10 03:02:00,66.0,65.0,30.03,North,355,0.0,-999.0,97,-99.99,,,-99.99,,2013-06-10 13:02:00,
2013-06-10 03:11:00,66.0,65.0,30.03,North,355,0.0,-999.0,97,-99.99,,,-99.99,,2013-06-10 13:11:00,
2013-06-10 03:22:00,67.0,66.0,30.03,North,355,0.0,-999.0,97,-99.99,,,-99.99,,2013-06-10 13:22:00,
2013-06-10 03:32:00,66.0,65.0,30.03,North,355,0.0,-999.0,97,-99.99,,,-99.99,,2013-06-10 13:32:00,
2013-06-10 03:42:00,66.0,65.0,30.03,North,355,0.0,-999.0,97,-99.99,,,-99.99,,2013-06-10 13:42:00,
2013-06-10 03:52:00,66.0,65.0,30.03,North,355,0.0,-999.0,97,-99.99,,,-99.99,,2013-06-10 13:52:00,
2013-06-10 04:02:00,66.0,65.0,30.03,North,355,0.0,-999.0,97,-99.99,,,-99.99,,2013-06-10 14:02:00,
2013-06-10 04:11:00,66.0,65.0,30.03,North,355,0.0,-999.0,97,-99.99,,,-99.99,,2013-06-10 14:11:00,
2013-06-10 04:22:00,65.0,64.0,30.03,North,355,0.0,-999.0,97,-99.99,,,-99.99,,2013-06-10 14:22:00,
2013-06-10 04:32:00,65.0,64.0,30.03,North,355,0.0,-999.0,97,-99.99,,,-99.99,,2013-06-10 14:32:00,
2013-06-10 04:42:00,65.0,64.0,30.03,North,355,0.0,-999.0,97,-99.99,,,-99.99,,2013-06-10 14:42:00,
2013-06-10 04:52:00,64.0,63.0,30.03,North,355,0.0,-999.0,97,-99.99,,,-99.99,,2013-06-10 14:52:00,
2013-06-10 05:01:00,64.0,63.0,30.04,North,355,0.0,-999.0,97,-99.99,,,-99.99,,2013-06-10 15:01:00,
2013-06-10 05:12:00,64.0,63.0,30.04,North,355,0.0,-999.0,97,-99.99,,,-99.99,,2013-06-10 15:12:00,
2013-06-10 05:22:00,65.0,64.0,30.04,North,355,0.0,-999.0,98,-99.99,,,-99.99,,2013-06-10 15:22:00,
2013-06-10 05:32:00,64.0,63.0,30.04,North,355,0.0,-999.0,98,-99.99,,,-99.99,,2013-06-10 15:32:00,
2013-06-10 05:43:00,64.0,63.0,30.04,North,355,0.0,-999.0,98,-99.99,,,-99.99,,2013-06-10 15:43:00,
2013-06-10 05:53:00,65.0,64.0,30.05,North,355,0.0,-999.0,98,-99.99,,,-99.99,,2013-06-10 15:53:00,
2013-06-10 06:02:00,64.0,63.0,30.05,North,355,0.0,-999.0,98,-99.99,,,-99.99,,2013-06-10 16:02:00,
2013-06-10 06:12:00,64.0,63.0,30.05,North,355,0.0,-999.0,98,-99.99,,,-99.99,,2013-06-10 16:12:00,
2013-06-10 06:22:00,64.0,63.0,30.05,North,355,0.0,-999.0,98,-99.99,,,-99.99,,2013-06-10 16:22:00,
2013-06-10 06:33:00,64.0,63.0,30.06,North,355,0.0,-999.0,98,-99.99,,,-99.99,,2013-06-10 16:33:00,
2013-06-10 06:42:00,65.0,64.0,30.06,North,355,0.0,-999.0,98,-99.99,,,-99.99,,2013-06-10 16:42:00,
2013-06-10 06:52:00,65.0,64.0,30.06,North,355,0.0,-999.0,98,-99.99,,,-99.99,,2013-06-10 16:52:00,
2013-06-10 07:02:00,66.0,65.0,30.06,North,355,0.0,-999.0,98,-99.99,,,-99.99,,2013-06-10 17:02:00,
2013-06-10 07:14:00,66.0,65.0,30.06,North,355,0.0,-999.0,98,-99.99,,,-99.99,,2013-06-10 17:14:00,
2013-06-10 07:26:00,67.0,67.0,30.07,North,355,0.0,-999.0,99,-99.99,,,-99.99,,2013-06-10 17:26:00,
2013-06-10 07:38:00,68.0,68.0,30.07,North,355,0.0,-999.0,99,-99.99,,,-99.99,,2013-06-10 17:38:00,
2013-06-10 07:48:00,69.0,68.0,30.07,WNW,296,0.0,-999.0,98,-99.99,,,-99.99,,2013-06-10 17:48:00,
2013-06-10 07:58:00,69.0,68.0,30.07,WNW,296,0.0,-999.0,98,-99.99,,,-99.99,,2013-06-10 17:58:00,
2013-06-10 08:06:00,72.0,70.0,30.07,NW,312,0.0,-999.0,93,-99.99,,,-99.99,,2013-06-10 18:06:00,
2013-06-10 08:14:00,72.0,70.0,30.07,NW,312,0.0,-999.0,93,-99.99,,,-99.99,,2013-06-10 18:14:00,
2013-06-10 08:24:00,74.0,70.0,30.07,North,349,0.0,-999.0,88,-99.99,,,-99.99,,2013-06-10 18:24:00,
2013-06-10 08:34:00,74.0,69.0,30.07,NNW,337,0.0,-999.0,85,-99.99,,,-99.99,,2013-06-10 18:34:00,
2013-06-10 08:47:00,74.0,69.0,30.07,NNW,337,0.0,-999.0,85,-99.99,,,-99.99,,2013-06-10 18:47:00,
2013-06-10 08:55:00,74.0,69.0,30.07,NW,315,0.0,-999.0,85,-99.99,,,-99.99,,2013-06-10 18:55:00,
2013-06-10 09:02:00,74.0,70.0,30.07,WNW,291,1.0,-999.0,86,-99.99,,,-99.99,,2013-06-10 19:02:00,
2013-06-10 09:12:00,74.0,70.0,30.07,WNW,291,1.0,-999.0,86,-99.99,,,-99.99,,2013-06-10 19:12:00,
2013-06-10 09:22:00,74.0,70.0,30.07,NW,311,0.0,-999.0,88,-99.99,,,-99.99,,2013-06-10 19:22:00,
2013-06-10 09:32:00,75.0,69.0,30.07,NNE,32,1.0,-999.0,83,-99.99,,,-99.99,,2013-06-10 19:32:00,
2013-06-10 09:42:00,75.0,69.0,30.07,NNE,32,1.0,-999.0,83,-99.99,,,-99.99,,2013-06-10 19:42:00,
2013-06-10 09:53:00,75.0,69.0,30.07,North,9,3.0,-999.0,82,-99.99,,,-99.99,,2013-06-10 19:53:00,
2013-06-10 10:02:00,74.0,69.0,30.07,North,5,1.0,-999.0,85,-99.99,,,-99.99,,2013-06-10 20:02:00,
2013-06-10 10:12:00,74.0,69.0,30.07,North,5,1.0,-999.0,85,-99.99,,,-99.99,,2013-06-10 20:12:00,
2013-06-10 10:22:00,77.0,70.0,30.07,NE,40,3.0,-999.0,78,-99.99,,,-99.99,,2013-06-10 20:22:00,
2013-06-10 10:32:00,77.0,70.0,30.06,NNE,13,5.0,-999.0,78,-99.99,,,-99.99,,2013-06-10 20:32:00,
2013-06-10 10:42:00,77.0,70.0,30.06,NNE,13,5.0,-999.0,78,-99.99,,,-99.99,,2013-06-10 20:42:00,
2013-06-10 10:52:00,77.0,70.0,30.06,NNE,13,5.0,-999.0,78,-99.99,,,-99.99,,2013-06-10 20:52:00,
2013-06-10 11:02:00,77.0,70.0,30.05,NNW,342,3.0,-999.0,79,-99.99,,,-99.99,,2013-06-10 21:02:00,
2013-06-10 11:12:00,77.0,70.0,30.05,NNW,342,3.0,-999.0,79,-99.99,,,-99.99,,2013-06-10 21:12:00,
2013-06-10 11:22:00,78.0,70.0,30.05,North,355,3.0,-999.0,76,-99.99,,,-99.99,,2013-06-10 21:22:00,
2013-06-10 11:33:00,78.0,71.0,30.05,NNE,15,4.0,-999.0,79,-99.99,,,-99.99,,2013-06-10 21:33:00,
2013-06-10 11:42:00,78.0,71.0,30.05,NNE,15,4.0,-999.0,79,-99.99,,,-99.99,,2013-06-10 21:42:00,
2013-06-10 11:53:00,79.0,72.0,30.04,NNE,20,4.0,-999.0,78,-99.99,,,-99.99,,2013-06-10 21:53:00,
2013-06-10 12:02:00,79.0,70.0,30.04,NNE,30,5.0,-999.0,75,-99.99,,,-99.99,,2013-06-10 22:02:00,
2013-06-10 12:12:00,79.0,70.0,30.04,NNE,30,5.0,-999.0,75,-99.99,,,-99.99,,2013-06-10 22:12:00,
2013-06-10 12:22:00,78.0,71.0,30.04,NNW,334,3.0,-999.0,78,-99.99,,,-99.99,,2013-06-10 22:22:00,
2013-06-10 12:33:00,77.0,70.0,30.04,North,360,3.0,-999.0,79,-99.99,,,-99.99,,2013-06-10 22:33:00,
2013-06-10 12:42:00,77.0,70.0,30.04,North,360,3.0,-999.0,79,-99.99,,,-99.99,,2013-06-10 22:42:00,
2013-06-10 12:52:00,76.0,69.0,30.03,NW,309,4.0,-999.0,79,-99.99,,,-99.99,,2013-06-10 22:52:00,
2013-06-10 13:02:00,77.0,70.0,30.03,ENE,59,3.0,-999.0,79,-99.99,,,-99.99,,2013-06-10 23:02:00,
2013-06-10 13:12:00,77.0,70.0,30.03,ENE,59,3.0,-999.0,79,-99.99,,,-99.99,,2013-06-10 23:12:00,
2013-06-10 13:22:00,76.0,70.0,30.03,NE,53,2.0,-999.0,81,-99.99,,,-99.99,,2013-06-10 23:22:00,
2013-06-10 13:32:00,76.0,69.0,30.02,NE,49,4.0,-999.0,79,-99.99,,,-99.99,,2013-06-10 23:32:00,
2013-06-10 13:42:00,76.0,69.0,30.02,NE,49,4.0,-999.0,79,-99.99,,,-99.99,,2013-06-10 23:42:00,
2013-06-10 13:52:00,77.0,70.0,30.02,NE,42,3.0,-999.0,78,-99.99,,,-99.99,,2013-06-10 23:52:00,
2013-06-10 14:12:00,78.0,71.0,30.01,NNE,30,2.0,-999.0,78,-99.99,,,-99.99,,2013-06-11 00:12:00,
2013-06-10 14:22:00,78.0,71.0,30.01,NNE,30,2.0,-999.0,78,-99.99,,,-99.99,,2013-06-11 00:22:00,
2013-06-10 14:32:00,77.0,70.0,30.01,East,85,3.0,-999.0,79,-99.99,,,-99.99,,2013-06-11 00:32:00,
2013-06-10 14:42:00,77.0,70.0,30.01,East,85,3.0,-999.0,79,-99.99,,,-99.99,,2013-06-11 00:42:00,
2013-06-10 14:52:00,76.0,69.0,30.01,NNE,19,4.0,-999.0,78,-99.99,,,-99.99,,2013-06-11 00:52:00,
2013-06-10 15:02:00,76.0,69.0,30.01,NNE,30,3.0,-999.0,79,-99.99,,,-99.99,,2013-06-11 01:02:00,
2013-06-10 15:12:00,76.0,69.0,30.01,NNE,30,3.0,-999.0,79,-99.99,,,-99.99,,2013-06-11 01:12:00,
2013-06-10 15:22:00,76.0,69.0,30.00,NNE,17,1.0,-999.0,79,-99.99,,,-99.99,,2013-06-11 01:22:00,
2013-06-10 15:31:00,77.0,69.0,30.00,ENE,78,2.0,-999.0,76,-99.99,,,-99.99,,2013-06-11 01:31:00,
2013-06-10 15:42:00,77.0,69.0,30.00,ENE,78,2.0,-999.0,76,-99.99,,,-99.99,,2013-06-11 01:42:00,
2013-06-10 15:52:00,77.0,68.0,30.00,NE,53,3.0,-999.0,75,-99.99,,,-99.99,,2013-06-11 01:52:00,
2013-06-10 16:02:00,76.0,68.0,30.00,NE,46,3.0,-999.0,76,-99.99,,,-99.99,,2013-06-11 02:02:00,
2013-06-10 16:12:00,76.0,68.0,30.00,NE,46,3.0,-999.0,76,-99.99,,,-99.99,,2013-06-11 02:12:00,
2013-06-10 16:22:00,76.0,69.0,30.00,NNE,19,2.0,-999.0,80,-99.99,,,-99.99,,2013-06-11 02:22:00,
2013-06-10 16:31:00,76.0,69.0,30.00,NNE,18,3.0,-999.0,78,-99.99,,,-99.99,,2013-06-11 02:31:00,
2013-06-10 16:42:00,75.0,68.0,30.00,East,86,3.0,-999.0,78,-99.99,,,-99.99,,2013-06-11 02:42:00,
2013-06-10 16:52:00,75.0,68.0,30.00,East,86,3.0,-999.0,78,-99.99,,,-99.99,,2013-06-11 02:52:00,
2013-06-10 17:02:00,75.0,68.0,30.00,NNE,29,2.0,-999.0,79,-99.99,,,-99.99,,2013-06-11 03:02:00,
2013-06-10 17:12:00,75.0,69.0,30.00,NNE,24,1.0,-999.0,81,-99.99,,,-99.99,,2013-06-11 03:12:00,
2013-06-10 17:22:00,75.0,69.0,30.00,NNE,24,1.0,-999.0,81,-99.99,,,-99.99,,2013-06-11 03:22:00,
2013-06-10 17:32:00,75.0,68.0,30.01,NE,43,1.0,-999.0,80,-99.99,,,-99.99,,2013-06-11 03:32:00,
2013-06-10 17:42:00,74.0,67.0,30.01,NNE,16,1.0,-999.0,79,-99.99,,,-99.99,,2013-06-11 03:42:00,
2013-06-10 17:53:00,74.0,67.0,30.01,NNE,16,1.0,-999.0,79,-99.99,,,-99.99,,2013-06-11 03:53:00,
2013-06-10 18:02:00,74.0,67.0,30.01,North,355,1.0,-999.0,79,-99.99,,,-99.99,,2013-06-11 04:02:00,
2013-06-10 18:12:00,74.0,67.0,30.01,North,355,1.0,-999.0,79,-99.99,,,-99.99,,2013-06-11 04:12:00,
2013-06-10 18:22:00,74.0,67.0,30.01,NE,49,1.0,-999.0,79,-99.99,,,-99.99,,2013-06-11 04:22:00,
2013-06-10 18:33:00,73.0,66.0,30.01,NE,48,0.0,-999.0,80,-99.99,,,-99.99,,2013-06-11 04:33:00,
2013-06-10 18:42:00,73.0,66.0,30.01,NE,48,0.0,-999.0,80,-99.99,,,-99.99,,2013-06-11 04:42:00,
2013-06-10 18:52:00,73.0,67.0,30.01,NE,48,0.0,-999.0,81,-99.99,,,-99.99,,2013-06-11 04:52:00,
2013-06-10 19:02:00,72.0,66.0,30.02,NE,48,0.0,-999.0,82,-99.99,,,-99.99,,2013-06-11 05:02:00,
2013-06-10 19:12:00,72.0,66.0,30.02,NE,48,0.0,-999.0,82,-99.99,,,-99.99,,2013-06-11 05:12:00,
2013-06-10 19:22:00,71.0,66.0,30.02,NE,48,0.0,-999.0,84,-99.99,,,-99.99,,2013-06-11 05:22:00,
2013-06-10 19:32:00,70.0,66.0,30.03,NE,48,0.0,-999.0,87,-99.99,,,-99.99,,2013-06-11 05:32:00,
2013-06-10 19:42:00,70.0,66.0,30.03,NE,48,0.0,-999.0,87,-99.99,,,-99.99,,2013-06-11 05:42:00,
2013-06-10 19:52:00,69.0,66.0,30.03,NE,48,0.0,-999.0,90,-99.99,,,-99.99,,2013-06-11 05:52:00,
2013-06-10 20:02:00,69.0,67.0,30.03,NE,48,0.0,-999.0,92,-99.99,,,-99.99,,2013-06-11 06:02:00,
2013-06-10 20:12:00,69.0,67.0,30.03,NE,48,0.0,-999.0,92,-99.99,,,-99.99,,2013-06-11 06:12:00,
2013-06-10 20:22:00,69.0,67.0,30.03,NE,48,0.0,-999.0,92,-99.99,,,-99.99,,2013-06-11 06:22:00,
2013-06-10 20:32:00,68.0,66.0,30.04,NE,48,0.0,-999.0,93,-99.99,,,-99.99,,2013-06-11 06:32:00,
2013-06-10 20:42:00,68.0,66.0,30.04,NE,48,0.0,-999.0,93,-99.99,,,-99.99,,2013-06-11 06:42:00,
2013-06-10 20:52:00,68.0,66.0,30.04,NE,48,0.0,-999.0,94,-99.99,,,-99.99,,2013-06-11 06:52:00,
2013-06-10 21:02:00,68.0,66.0,30.04,NE,48,0.0,-999.0,94,-99.99,,,-99.99,,2013-06-11 07:02:00,
2013-06-10 21:12:00,68.0,66.0,30.05,NE,48,0.0,-999.0,94,-99.99,,,-99.99,,2013-06-11 07:12:00,
2013-06-10 21:22:00,68.0,66.0,30.05,NE,48,0.0,-999.0,94,-99.99,,,-99.99,,2013-06-11 07:22:00,
2013-06-10 21:32:00,67.0,65.0,30.05,NE,48,0.0,-999.0,94,-99.99,,,-99.99,,2013-06-11 07:32:00,
2013-06-10 21:42:00,67.0,65.0,30.05,NE,48,0.0,-999.0,94,-99.99,,,-99.99,,2013-06-11 07:42:00,
2013-06-10 21:52:00,67.0,65.0,30.05,NE,48,0.0,-999.0,94,-99.99,,,-99.99,,2013-06-11 07:52:00,
2013-06-10 22:02:00,66.0,65.0,30.05,NE,48,0.0,-999.0,95,-99.99,,,-99.99,,2013-06-11 08:02:00,
2013-06-10 22:11:00,66.0,65.0,30.05,NE,48,0.0,-999.0,95,-99.99,,,-99.99,,2013-06-11 08:11:00,
2013-06-10 22:22:00,66.0,65.0,30.06,NE,48,0.0,-999.0,96,-99.99,,,-99.99,,2013-06-11 08:22:00,
2013-06-10 22:32:00,66.0,65.0,30.06,NE,48,0.0,-999.0,96,-99.99,,,-99.99,,2013-06-11 08:32:00,
2013-06-10 22:42:00,66.0,65.0,30.06,NE,48,0.0,-999.0,96,-99.99,,,-99.99,,2013-06-11 08:42:00,
2013-06-10 22:52:00,66.0,65.0,30.06,NE,48,0.0,-999.0,96,-99.99,,,-99.99,,2013-06-11 08:52:00,
2013-06-10 23:01:00,66.0,65.0,30.05,NE,48,0.0,-999.0,96,-99.99,,,-99.99,,2013-06-11 09:01:00,
2013-06-10 23:11:00,66.0,65.0,30.05,NE,48,0.0,-999.0,96,-99.99,,,-99.99,,2013-06-11 09:11:00,
2013-06-10 23:22:00,66.0,65.0,30.05,NE,48,0.0,-999.0,96,-99.99,,,-99.99,,2013-06-11 09:22:00,
2013-06-10 23:33:00,65.0,64.0,30.05,NE,48,0.0,-999.0,96,-99.99,,,-99.99,,2013-06-11 09:33:00,
2013-06-10 23:43:00,65.0,64.0,30.04,NE,48,0.0,-999.0,97,-99.99,,,-99.99,,2013-06-11 09:43:00,
2013-06-10 23:53:00,65.0,64.0,30.04,NE,48,0.0,-999.0,97,-99.99,,,-99.99,,2013-06-11 09:53:00,